Location: Eferding
(48.3167°N, 14.0167°E)
Time: 21:07:22
(UTC+00:00)

Cosmos 1867 - Pass Details

Date: 12 November 2019
Orbit: 776 x 799 km, 65.0° (Epoch: 10 December)

Event Time Altitude Azimuth Distance (km) Brightness Sun altitude
Rises 17:10:50 0° 222° (SW) 3,283 7.6 -16.9°
Reaches altitude 10° 17:13:15 10° 225° (SW) 2,360 6.8 -17.3°
Maximum altitude 17:18:41 73° 310° (NW) 836 3.7 -18.2°
Enters shadow 17:22:40 19° 33° (NNE) 1,830 5.1 -18.8°
